www.pogodaiklimat.ru
Время
и дата
00:56 19.10
01:56 19.10
02:56 19.10
03:26 19.10
03:56 19.10
04:34 19.10
04:56 19.10
05:56 19.10
06:56 19.10
07:56 19.10
08:56 19.10
09:56 19.10
10:56 19.10
11:56 19.10
12:56 19.10
13:56 19.10
14:56 19.10
15:56 19.10
16:56 19.10
17:56 19.10
18:56 19.10
19:56 19.10
20:56 19.10
21:56 19.10
22:56 19.10
23:56 19.10
00:56 20.10
01:56 20.10
02:56 20.10
03:56 20.10
04:48 20.10
04:56 20.10
04:58 20.10
05:56 20.10
06:30 20.10
06:56 20.10
07:56 20.10
08:56 20.10
09:18 20.10
09:56 20.10
10:56 20.10
11:56 20.10
12:56 20.10
13:56 20.10
14:56 20.10
15:56 20.10
16:56 20.10
17:56 20.10
Ветер
(напр.,м/с)
Видим. Явления Облачность Т
(С)
Тd
(С)
f
(%)
Тe
(С)
Тes
(С)
Комфортность P
(гПа)
Po
(гПа)
Тmin
(С)
Tmax
(С)
R
(мм)
R24
(мм)
S
(см)
ЮЗ 1 16 км 2/2 330 м +10.0 +6.7 80 +9 +9 1017.1 1016.8
ЮЗ 1 16 км 2/2 330 м +8.9 +6.7 86 +7 +7 1016.6 1016.1
нст 1 16 км 5/5 390 м +10.0 +6.7 80 +9 +9 1016.2 1015.8
Ю 1 16 км 8/8 360 м +10.0 +7.2 83 +8 +8 1015.4
Ю 1 16 км 8/8 390 м +10.0 +7.8 86 +8 +8 1015.8 1015.4 +8.9 +11.7
Ю 1 16 км 5/5 390 м +10.0 +7.8 86 +8 +8 1015.4
Ю 1 16 км 5/5 390 м +10.0 +7.2 83 +8 +8 1015.9 1015.4
ЮЗ 1 16 км 2/2 390 м +9.4 +6.7 83 +8 +8 1016.2 1015.8
Ю 1 16 км 8/2 360 м
[Ac]
+10.0 +8.3 89 +8 +8 1016.3 1015.8
Ю 1 16 км 8/2 360 м
[Ac]
+11.1 +8.3 83 +10 +10 1016.9 1016.5
штиль 0 16 км 8/2 360 м
[Ac]
+13.3 +9.4 77 +13 +14 1017.0 1016.5
В 1 16 км 8/2 360 м
[Ac]
+13.9 +8.9 72 +13 +15 1016.8 1016.5 +9.4 +13.9
В 2 16 км 8/2 360 м
[Ac]
+15.0 +9.4 69 +14 +16 1016.1 1015.8
штиль 0 16 км 8/2 750 м
[Ac]
+16.1 +8.3 60 +16 +22 1015.5 1015.1
СВ 1 16 км 8/2 300 м
[Ac]
+17.2 +8.3 56 +17 +21 1014.4 1014.1
С 1 16 км 8/2 750 м
[Ac]
+18.3 +6.7 47 +19 +22 1014.1 1013.7
нст 1
{3}
16 км 8/2 750 м
[Ac]
+18.9 +3.9 37 +19 +22 1013.4 1013.1
ЮЗ 4 16 км 8/2 750 м
[Ac]
+17.2 +4.4 43 +16 +16 1013.8 1013.4 +13.9 +19.4
Ю 3
{4}
16 км 8/0 2400 м
[Ac]
+17.2 +3.3 39 +16 +17 1014.0 1013.4
Ю 4
{5}
16 км 10/0 2400 м
[Ac]
+16.7 +1.7 36 +15 +15 1013.5 1013.1
ЮВ 3
{4}
16 км 10/0 2400 м
[Ac]
+16.1 +3.9 44 +15 +15 1012.4 1012.1
Ю 3 16 км 10/0 2400 м
[Ac]
+16.7 -1.1 30 +16 +16 1014.0 1013.7
Ю 5 16 км 8/2 1500 м
[Ac]
+16.1 +3.3 42 +14 +14 1013.7 1013.4
Ю 3 16 км 8/0 2550 м
[Ac]
+16.1 +3.3 42 +15 +15 1014.7 1014.4 +16.1 +17.8
Ю 3
{5}
16 км 10/8 1800 м
[Ac]
+15.6 +5.6 51 +14 +14 1015.4 1015.1
Ю 3
{6}
16 км слабая морось 8/5 1500 м
[Ac]
+13.9 +8.3 69 +12 +12 1015.5 1015.1
Ю 2 16 км слабая морось 8/8 1950 м +13.9 +8.9 72 +12 +12 1015.6 1015.1
Ю 3 16 км слабая морось 8/8 1500 м +13.9 +10.0 77 +12 +12 1015.9 1015.4
Ю 2 16 км слабая морось 8/8 1260 м +13.3 +10.0 80 +11 +11 1016.1 1015.8
ЮВ 2 4 км слабая морось 8/8 450 м +12.8 +11.1 89 +11 +11 1016.0 1015.4 +12.8 +16.7
ЮВ 3 14 км 8/8 180 м +13.9 +11.1 83 +12 +12 1016.1
ЮВ 3 14 км 8/8 180 м +14.4 +11.1 81 +12 +12 1016.5 1016.1
ЮВ 3 14 км 10/10 600 м +14.4 +10.6 78 +13 +13 1016.1
ЮВ 2 14 км 10/10 720 м +13.9 +10.6 80 +12 +12 1016.7 1016.1
ЮВ 1 14 км 10/10 720 м +14.4 +10.6 78 +13 +13 1016.5
Ю 1 14 км 10/10 720 м +14.4 +10.6 78 +14 +14 1017.1 1016.8
Ю 1 6 км мгла 10/10 600 м +14.4 +11.7 84 +14 +14 1018.0 1017.5
штиль 0 16 км 10/10 570 м +15.0 +12.2 83 +15 +15 1018.4 1018.1
штиль 0 14 км 10/10 600 м +16.1 +12.8 81 +16 +16 1018.1
Ю 1 16 км 10/10 660 м +16.7 +12.8 78 +16 +16 1018.6 1018.1 +12.8 +16.7
Ю 1 16 км 8/8 540 м +18.3 +12.8 70 +19 +20 1018.5 1018.1
Ю 2 16 км 8/8 300 м +18.9 +12.8 68 +20 +20 1018.4 1018.1
Ю 3 16 км 10/10 300 м +18.3 +13.3 73 +18 +18 1018.2 1017.8
Ю 3
{5}
16 км 10/8 540 м
[Ac]
+18.3 +13.3 73 +18 +18 1017.9 1017.5
Ю 2 16 км 10/8 480 м
[Ac]
+17.8 +13.3 75 +18 +18 1017.8 1017.5
Ю 2 11 км 10/8 570 м
[Ac]
+18.3 +13.9 76 +19 +19 1017.5 1017.1 +16.7 +19.4
В 2 6 км слабый дождь, дымка 10/10 510 м +16.1 +14.4 90 +15 +15 1017.5 1017.1
ЮВ 1 5 км слабый дождь, дымка 10/10 330 м +16.1 +15.0 93 +16 +16 1017.6 1017.1
Местоположение метеостанции San Francisco International Airport: широта 37.6196 долгота -122.3656 высота над уровнем моря 3 м.
В архиве по умолчанию представлена погода в Сан-Франциско за последние 1-2 суток. Обновление информации о фактической погоде в базе происходит ежечасно! Архивные данные за месяц целиком и за предыдущие месяцы Вы можете получить, выбрав интересующий диапазон дат из раскрывающегося списка и нажав кнопку "Ввод!".
Внимание! Архив погоды МЕТАР в базе сайта по станциям, не включенным в климатический монитор, хранится не более 60 дней. Нет смысла пытаться выбрать более раннюю дату.
*Определитесь, кто Вы:
Внимание! Время в таблицах - местное (без учета летнего времени). Для получения всемирного времени необходимо вычесть поправку, которая равна -8 ч.
Смотрите также архив погоды в соседних городах и на ближайших метеорологических станциях:
Партнеры нашего сайта:      
Пояснения к столбцам:
  • Ветер - указаны скорость ветра в м/с - средняя за 10 мин, порывы в срок и между сроками (в фигурных скобках) и направление, откуда дует ветер: С - северный,
  • СВ - северо-восточный, В - восточный, ЮВ - юго-восточный, Ю - южный, ЮЗ - юго-западный, З - западный, СЗ - северо-западный.
  • Видимость - горизонтальная дальность видимости в метрах или километрах. При видимости от 1 до 10 км при отсутствии осадков обычно наблюдается дымка, при ухудшении видимости до 1 км и менее - туман. В сухую погоду видимость может ухудшаться дымом, пылью или мглою.
  • Явления - указаны атмосферные явления, наблюдавшиеся в срок или в последний час перед сроком; фигурными скобками обозначены явления, наблюдавшиеся между сроками (за 1-3 часа до срока); квадратными скобками обозначены град или гололедные отложения с указанием их диаметра в мм.
  • Облачность - указаны через наклонную черту общая и нижняя облачность в баллах и высота нижней границы облаков в метрах; квадратными скобками обозначены формы облаков: Ci - перистые, Cs - перисто-слоистые, Cc - перисто-кучевые, Ac - высококучевые, As - высокослоистые, Sc - слоисто-кучевые, Ns - слоисто-дождевые, Cu - кучевые, Cb - кучево-дождевые. Подробнее классификацию облаков см. в Атласе облаков (PDF).
  • T - Температура воздуха - температура, измеренная на высоте 2 м над землей.
  • Td - Температура точки росы - температура, при понижении до которой содержащийся в воздухе водяной пар достигнет насыщения.
  • f - Относительная влажность воздуха - влажноcть воздуха, измеренная на высоте 2 м над землей.
  • Te - Эффективная температура - температура, которую ощущает одетый по сезону человек в тени. Характеристика душности погоды. При расчете учитывается влияние влажности воздуха и скорости ветра на теплоощущения человека.
  • Tes - Эффективная температура на солнце - температура, которую ощущает человек, с поправкой на солнечный нагрев. Характеристика знойности погоды. Зависит от высоты солнца над горизонтом, облачности и скорости ветра. Ночью, в пасмурную погоду, а также при ветре 12 м/с и более поправка равна нулю.
  • P - Атмосферное давление - приведенное к уровню моря атмосферное давление.
  • Po - Атмосферное давление - измеренное на уровне метеостанции атмосферное давление.
  • Tmin - Минимальная температура - минимум температуры воздуха на высоте 2 м над землей.
  • Tmax - Максимальная температура - максимум температуры воздуха на высоте 2 м над землей.
  • R - Количество осадков - Количество выпавших осадков за период времени, мм. При наведении курсора мыши на число - период времени, за который выпало указанное количество осадков.
  • R24 - Количество осадков - Количество выпавших осадков за 24 часа, мм.
  • S - Снежный покров - Высота снежного покрова, см. При наведении курсора мыши на число - состояние снежного покрова и степень покрытия местности в баллах.